New York Downtown Manhattan/w, NY

12:30 AM EDT on August 26, 2019 (GMT -0400)
New York Downtown Manhattan/w

Weather History for KJRB - June, 2019

Change the Weather History Date:

Sunday, June 2, 2019

  Actual Average (KEWR) Record (KEWR)
Temperature  
Mean Temperature 74 °F -  
Max Temperature 84 °F 78 °F 93 °F (1989)
Min Temperature 64 °F 60 °F 48 °F (2003)
Cooling Degree Days 9    
Growing Degree Days 24 (Base 50)    
Moisture  
Dew Point 61 °F    
Average Humidity 73    
Maximum Humidity 94    
Minimum Humidity 38    
Precipitation  
Precipitation 0.37 in - - ()
Sea Level Pressure  
Sea Level Pressure 29.72 in    
Wind  
Wind Speed 3 mph ()    
Max Wind Speed 20 mph    
Max Gust Speed 40 mph    
Visibility 9.3 miles    
Events Rain , Thunderstorm    
Averages and records for this station are not official NWS values.
T = Trace of Precipitation, MM = Missing Value Source: Averaged Metar Reports

Daily Weather History Graph

Daily Weather History Graph

Search for Another Location

Airport or City:

Astronomy

Jun. 02, 2019 Rise Set
Actual Time 5:26 AM EDT 8:21 PM EDT
Civil Twilight 4:54 AM EDT 8:54 PM EDT
Nautical Twilight 4:12 AM EDT 9:35 PM EDT
Astronomical Twilight 3:25 AM EDT 10:23 PM EDT
Moon 5:05 AM EDT (6/2) 7:37 PM EDT (6/2)
Length of Visible Light 16h 00m
Length of Day
14h 54m
Waning Crescent, 1% of the Moon is Illuminated
Jun 2
Waning Crescent
Jun 3
New
Jun 10
First Quarter
Jun 17
Full
Jun 25
Last Quarter

Hourly Weather History & Observations

Time (EDT) Temp. Heat Index Dew Point Humidity Pressure Visibility Wind Dir Wind Speed Gust Speed Precip Events Conditions
12:56 AM 66.9 °F - 62.1 °F 84% 29.78 in 10.0 mi Calm Calm - N/A   Scattered Clouds
1:56 AM 68.0 °F - 62.1 °F 81% 29.76 in 10.0 mi Calm Calm - N/A   Clear
2:56 AM 66.0 °F - 62.1 °F 87% 29.74 in 10.0 mi Calm Calm - N/A   Clear
3:56 AM 66.0 °F - 62.1 °F 87% 29.73 in 10.0 mi Calm Calm - N/A   Clear
4:56 AM 66.0 °F - 62.1 °F 87% 29.73 in 10.0 mi West 5.8 mph - N/A   Mostly Cloudy
5:56 AM 64.9 °F - 62.1 °F 90% 29.73 in 10.0 mi West 3.5 mph - N/A   Clear
6:56 AM 64.0 °F - 61.0 °F 90% 29.75 in 8.0 mi Calm Calm - N/A   Clear
7:56 AM 64.9 °F - 61.0 °F 87% 29.75 in 10.0 mi SW 3.5 mph - N/A   Clear
8:56 AM 66.0 °F - 60.1 °F 81% 29.76 in 10.0 mi Variable 3.5 mph - N/A   Clear
9:56 AM 71.1 °F - 60.1 °F 68% 29.77 in 10.0 mi WSW 5.8 mph - N/A   Clear
10:56 AM 75.9 °F - 60.1 °F 58% 29.76 in 10.0 mi SSW 4.6 mph - N/A   Clear
11:56 AM 79.0 °F - 59.0 °F 50% 29.75 in 10.0 mi SW 3.5 mph - N/A   Clear
12:56 PM 81.0 °F 81.3 °F 59.0 °F 47% 29.73 in 10.0 mi SSW 5.8 mph - N/A   Mostly Cloudy
1:56 PM 84.0 °F 83.0 °F 55.9 °F 38% 29.71 in 10.0 mi WSW 5.8 mph - N/A   Partly Cloudy
2:56 PM 82.0 °F 82.0 °F 57.9 °F 44% 29.69 in 10.0 mi SW 6.9 mph - N/A   Clear
3:56 PM 82.0 °F 82.1 °F 59.0 °F 45% 29.67 in 10.0 mi West 9.2 mph 33.4 mph N/A   Partly Cloudy
4:56 PM 79.0 °F - 60.1 °F 52% 29.66 in 10.0 mi West 6.9 mph - N/A Thunderstorm Mostly Cloudy
5:32 PM 75.2 °F - 60.8 °F 61% 29.66 in 10.0 mi West 11.5 mph 18.4 mph N/A   Overcast
5:42 PM 71.6 °F - 62.6 °F 73% 29.67 in 2.0 mi WSW 10.4 mph 31.1 mph 0.19 in Rain Heavy Rain
5:56 PM 70.0 °F - 64.0 °F 81% 29.65 in 10.0 mi Variable 4.6 mph - 0.21 in Rain Light Rain
6:56 PM 71.1 °F - 64.0 °F 78% 29.67 in 10.0 mi West 3.5 mph - 0.00 in   Partly Cloudy
7:56 PM 71.1 °F - 62.1 °F 73% 29.67 in 10.0 mi West 4.6 mph - N/A   Clear
8:56 PM 71.1 °F - 62.1 °F 73% 29.69 in 10.0 mi West 6.9 mph - N/A   Mostly Cloudy
9:16 PM 71.6 °F - 62.6 °F 73% 29.69 in 10.0 mi West 6.9 mph - N/A Thunderstorm Thunderstorm
9:20 PM 71.6 °F - 62.6 °F 73% 29.69 in 10.0 mi West 5.8 mph - N/A Thunderstorm Thunderstorm
9:46 PM 66.2 °F - 60.8 °F 83% 29.74 in 4.0 mi West 19.6 mph 40.3 mph 0.11 in Rain , Thunderstorm Heavy Rain
9:56 PM 64.9 °F - 61.0 °F 87% 29.75 in 5.0 mi Variable 4.6 mph 25.3 mph 0.14 in Rain Light Rain
10:21 PM 64.4 °F - 62.6 °F 94% 29.75 in 10.0 mi South 4.6 mph - 0.02 in   Mostly Cloudy
10:56 PM 64.0 °F - 61.0 °F 90% 29.76 in 10.0 mi Calm Calm - 0.02 in   Overcast
11:56 PM 64.0 °F - 55.9 °F 75% 29.78 in 10.0 mi Calm Calm - N/A   Mostly Cloudy